STARLINK AK

Last updated on June 19, 2020, 12:02 a.m. UTC

1 45763U 20038AK  20170.75001157  .00111048  11274-4  13800-3 0  9993
2 45763  52.9995 271.8083 0111528  69.5164 147.4129 15.96120943  1957

Satellite is not in orbit.